South Lake Tahoe, CA

1:40 AM PST on January 18, 2017 (GMT -0800)
Lake Tahoe

Weather History for KTVL - May, 2012

Change the Weather History Date:

Wednesday, May 2, 2012

  Actual Average Record
Temperature  
Mean Temperature 44 °F 44 °F  
Max Temperature 61 °F 59 °F 74 °F (2014)
Min Temperature 26 °F 29 °F 21 °F (1968)
Degree Days  
Heating Degree Days 21 21  
Month to date heating degree days 39 21  
Since 1 July heating degree days 6252 6911  
Cooling Degree Days 0 0  
Month to date cooling degree days 0 0  
Year to date cooling degree days 0 0  
Moisture  
Dew Point 15 °F    
Average Humidity 36    
Maximum Humidity 63    
Minimum Humidity 9    
Precipitation  
Precipitation 0.00 in - 0.49 in (1964)
Month to date precipitation 0.00  
Year to date precipitation 9.76  
Sea Level Pressure  
Sea Level Pressure 29.87 in    
Wind  
Wind Speed 5 mph (SSW)    
Max Wind Speed 23 mph    
Max Gust Speed 33 mph    
Visibility 10 miles    
Events      
T = Trace of Precipitation, MM = Missing Value Source: NWS Daily Summary

Daily Weather History Graph

Daily Weather History Graph

Search for Another Location

Airport or City:

Trip Planner

Search our weather history database for the weather conditions in past years. The results will help you decide how hot, cold, wet, or windy it might be!

Date:

Astronomy

May. 02, 2012 Rise Set
Actual Time 6:00 AM PDT 7:54 PM PDT
Civil Twilight 5:31 AM PDT 8:23 PM PDT
Nautical Twilight 4:56 AM PDT 8:58 PM PDT
Astronomical Twilight 4:18 AM PDT 9:36 PM PDT
Moon 4:14 PM PDT (5/2) 3:30 AM PDT (5/2)
Length of Visible Light 14h 51m
Length of Day
13h 53m
Waxing Gibbous, 84% of the Moon is Illuminated
May 2
Waxing Gibbous
May 5
Full
May 12
Last Quarter
May 20
New
May 28
First Quarter

Hourly Weather History & Observations

Time (PDT) Temp. Windchill Dew Point Humidity Pressure Visibility Wind Dir Wind Speed Gust Speed Precip Events Conditions
12:53 AM 33.1 °F - 15.1 °F 48% 29.84 in 10.0 mi Calm Calm - N/A   Clear
1:53 AM 30.9 °F - 16.0 °F 54% 29.86 in 10.0 mi Calm Calm - N/A   Clear
2:53 AM 28.9 °F - 12.0 °F 49% 29.86 in 10.0 mi Calm Calm - N/A   Clear
3:53 AM 28.0 °F - 15.1 °F 58% 29.86 in 10.0 mi Calm Calm - N/A   Clear
4:53 AM 27.0 °F - 14.0 °F 58% 29.87 in 10.0 mi Calm Calm - N/A   Clear
5:53 AM 27.0 °F - 15.1 °F 61% 29.87 in 10.0 mi Calm Calm - N/A   Clear
6:53 AM 27.0 °F - 16.0 °F 63% 29.89 in 10.0 mi Calm Calm - N/A   Clear
7:53 AM 37.0 °F - 17.1 °F 44% 29.88 in 10.0 mi Calm Calm - N/A   Clear
8:53 AM 53.1 °F - -4.0 °F 10% 29.85 in 10.0 mi South 13.8 mph 17.3 mph N/A   Clear
9:53 AM 55.9 °F - -4.0 °F 9% 29.84 in 10.0 mi South 17.3 mph 23.0 mph N/A   Clear
10:53 AM 57.0 °F - -0.0 °F 10% 29.86 in 10.0 mi South 16.1 mph 24.2 mph N/A   Clear
11:53 AM 57.9 °F - 9.0 °F 14% 29.85 in 10.0 mi South 17.3 mph 26.5 mph N/A   Clear
12:53 PM 59.0 °F - 19.9 °F 22% 29.87 in 10.0 mi SSW 10.4 mph 21.9 mph N/A   Clear
1:53 PM 60.1 °F - 19.0 °F 20% 29.87 in 10.0 mi SSW 17.3 mph 26.5 mph N/A   Clear
2:53 PM 60.1 °F - 19.0 °F 20% 29.86 in 10.0 mi SSW 16.1 mph 27.6 mph N/A   Clear
3:53 PM 59.0 °F - 19.9 °F 22% 29.86 in 10.0 mi SW 13.8 mph 24.2 mph N/A   Clear
4:53 PM 55.9 °F - 18.0 °F 23% 29.88 in 10.0 mi SSW 16.1 mph 20.7 mph N/A   Clear
5:53 PM 54.0 °F - 19.9 °F 26% 29.89 in 10.0 mi South 12.7 mph 21.9 mph N/A   Mostly Cloudy
6:53 PM 52.0 °F - 25.0 °F 35% 29.89 in 10.0 mi SSW 12.7 mph 19.6 mph N/A   Clear
7:53 PM 48.0 °F - 27.0 °F 44% 29.88 in 10.0 mi SSW 6.9 mph - N/A   Clear
8:53 PM 46.0 °F 43.9 °F 28.0 °F 50% 29.85 in 10.0 mi SSE 4.6 mph - N/A   Clear
9:53 PM 45.0 °F 41.8 °F 18.0 °F 34% 29.86 in 10.0 mi South 5.8 mph - N/A   Mostly Cloudy
10:53 PM 41.0 °F - 16.0 °F 36% 29.87 in 10.0 mi Calm Calm - N/A   Clear
11:53 PM 37.9 °F 35.5 °F 16.0 °F 41% 29.87 in 10.0 mi Variable 3.5 mph - N/A   Clear